Time,TemperatureF,DewpointF,PressureIn,WindDirection,WindDirectionDegrees,WindSpeedMPH,WindSpeedGustMPH,Humidity,HourlyPrecipIn,Conditions,Clouds,dailyrainin,SoftwareType,DateUTC
2013-08-27 00:13:00,76.0,-99.9,-100.00,SW,215,0.0,0.0,-999,0.00,,,0.00,,2013-08-27 05:13:00,
2013-08-27 00:23:00,76.0,-99.9,-100.00,SW,215,0.0,0.0,-999,0.00,,,0.00,,2013-08-27 05:23:00,
2013-08-27 00:43:00,76.0,-99.9,-100.00,SE,125,1.0,2.0,-999,0.00,,,0.00,,2013-08-27 05:43:00,
2013-08-27 00:52:00,76.0,-99.9,-100.00,SE,125,1.0,2.0,-999,0.00,,,0.00,,2013-08-27 05:52:00,
2013-08-27 01:12:00,76.0,-99.9,-100.00,WSW,238,0.0,0.0,-999,0.00,,,0.00,,2013-08-27 06:12:00,
2013-08-27 01:22:00,76.0,-99.9,-100.00,WSW,238,0.0,0.0,-999,0.00,,,0.00,,2013-08-27 06:22:00,
2013-08-27 01:30:00,74.0,-99.9,-100.00,SW,214,0.0,1.0,-999,0.00,,,0.00,,2013-08-27 06:30:00,
2013-08-27 01:42:00,74.0,-99.9,-100.00,SSW,212,1.0,2.0,-999,0.00,,,0.00,,2013-08-27 06:42:00,
2013-08-27 01:52:00,74.0,-99.9,-100.00,SSW,212,1.0,2.0,-999,0.00,,,0.00,,2013-08-27 06:52:00,
2013-08-27 02:12:00,74.0,-99.9,-100.00,SW,214,0.0,1.0,-999,0.00,,,0.00,,2013-08-27 07:12:00,
2013-08-27 02:22:00,74.0,-99.9,-100.00,SW,214,0.0,1.0,-999,0.00,,,0.00,,2013-08-27 07:22:00,
2013-08-27 03:12:00,75.0,-99.9,-100.00,SSE,148,1.0,2.0,-999,0.00,,,0.00,,2013-08-27 08:12:00,
2013-08-27 03:22:00,75.0,-99.9,-100.00,SSE,148,1.0,2.0,-999,0.00,,,0.00,,2013-08-27 08:22:00,
2013-08-27 03:42:00,75.0,-99.9,-100.00,SSE,161,1.0,2.0,-999,0.00,,,0.00,,2013-08-27 08:42:00,
2013-08-27 03:52:00,75.0,-99.9,-100.00,SSE,161,1.0,2.0,-999,0.00,,,0.00,,2013-08-27 08:52:00,
2013-08-27 04:12:00,75.0,-99.9,-100.00,SSE,156,0.0,1.0,-999,0.00,,,0.00,,2013-08-27 09:12:00,
2013-08-27 04:22:00,75.0,-99.9,-100.00,SSE,156,0.0,1.0,-999,0.00,,,0.00,,2013-08-27 09:22:00,
2013-08-27 04:43:00,76.0,-99.9,-100.00,SSE,158,1.0,3.0,-999,0.00,,,0.00,,2013-08-27 09:43:00,
2013-08-27 04:54:00,76.0,-99.9,-100.00,SSE,158,1.0,3.0,-999,0.00,,,0.00,,2013-08-27 09:54:00,
2013-08-27 05:14:00,75.0,-99.9,-100.00,SSW,202,0.0,2.0,-999,0.00,,,0.00,,2013-08-27 10:14:00,
2013-08-27 05:25:00,75.0,-99.9,-100.00,SSW,202,0.0,2.0,-999,0.00,,,0.00,,2013-08-27 10:25:00,
2013-08-27 05:43:00,75.0,-99.9,-100.00,SSE,149,1.0,1.0,-999,0.00,,,0.00,,2013-08-27 10:43:00,
2013-08-27 05:53:00,75.0,-99.9,-100.00,SSE,149,1.0,1.0,-999,0.00,,,0.00,,2013-08-27 10:53:00,
2013-08-27 06:12:00,74.0,-99.9,-100.00,SE,138,0.0,1.0,-999,0.00,,,0.00,,2013-08-27 11:12:00,
2013-08-27 06:22:00,74.0,-99.9,-100.00,SE,138,0.0,1.0,-999,0.00,,,0.00,,2013-08-27 11:22:00,
2013-08-27 06:42:00,75.0,-99.9,-100.00,SSE,152,1.0,2.0,-999,0.00,,,0.00,,2013-08-27 11:42:00,
2013-08-27 06:52:00,75.0,-99.9,-100.00,SSE,152,1.0,2.0,-999,0.00,,,0.00,,2013-08-27 11:52:00,
2013-08-27 07:12:00,74.0,-99.9,-100.00,SSE,151,1.0,2.0,-999,0.00,,,0.00,,2013-08-27 12:12:00,
2013-08-27 07:22:00,74.0,-99.9,-100.00,SSE,151,1.0,2.0,-999,0.00,,,0.00,,2013-08-27 12:22:00,
2013-08-27 07:42:00,75.0,-99.9,-100.00,South,169,0.0,2.0,-999,0.00,,,0.00,,2013-08-27 12:42:00,
2013-08-27 07:52:00,75.0,-99.9,-100.00,South,169,0.0,2.0,-999,0.00,,,0.00,,2013-08-27 12:52:00,
2013-08-27 08:12:00,75.0,-99.9,-100.00,SSE,154,1.0,3.0,-999,0.00,,,0.00,,2013-08-27 13:12:00,
2013-08-27 08:22:00,75.0,-99.9,-100.00,SSE,154,1.0,3.0,-999,0.00,,,0.00,,2013-08-27 13:22:00,
2013-08-27 08:42:00,78.0,-99.9,-100.00,South,183,1.0,3.0,-999,0.00,,,0.00,,2013-08-27 13:42:00,
2013-08-27 08:53:00,78.0,-99.9,-100.00,South,183,1.0,3.0,-999,0.00,,,0.00,,2013-08-27 13:53:00,
2013-08-27 09:11:00,80.0,-99.9,-100.00,South,189,1.0,3.0,-999,0.00,,,0.00,,2013-08-27 14:11:00,
2013-08-27 09:22:00,80.0,-99.9,-100.00,South,189,1.0,3.0,-999,0.00,,,0.00,,2013-08-27 14:22:00,
2013-08-27 09:42:00,81.0,-99.9,-100.00,SSW,211,2.0,8.0,-999,0.00,,,0.00,,2013-08-27 14:42:00,
2013-08-27 09:53:00,81.0,-99.9,-100.00,SSW,211,2.0,8.0,-999,0.00,,,0.00,,2013-08-27 14:53:00,
2013-08-27 10:11:00,84.0,-99.9,-100.00,SSW,196,1.0,3.0,-999,0.00,,,0.00,,2013-08-27 15:11:00,
2013-08-27 10:22:00,84.0,-99.9,-100.00,SSW,196,1.0,3.0,-999,0.00,,,0.00,,2013-08-27 15:22:00,
2013-08-27 10:45:00,86.0,-99.9,-100.00,South,178,2.0,5.0,-999,0.00,,,0.00,,2013-08-27 15:45:00,
2013-08-27 10:58:00,86.0,-99.9,-100.00,South,178,2.0,5.0,-999,0.00,,,0.00,,2013-08-27 15:58:00,
2013-08-27 11:17:00,86.0,-99.9,-100.00,SW,227,4.0,10.0,-999,0.00,,,0.00,,2013-08-27 16:17:00,
2013-08-27 11:28:00,86.0,-99.9,-100.00,SW,227,4.0,10.0,-999,0.00,,,0.00,,2013-08-27 16:28:00,
2013-08-27 11:46:00,88.0,-99.9,-100.00,WSW,238,2.0,6.0,-999,0.00,,,0.00,,2013-08-27 16:46:00,
2013-08-27 11:55:00,88.0,-99.9,-100.00,WSW,238,2.0,6.0,-999,0.00,,,0.00,,2013-08-27 16:55:00,
2013-08-27 12:13:00,89.0,-99.9,-100.00,South,189,1.0,6.0,-999,0.00,,,0.00,,2013-08-27 17:13:00,
2013-08-27 12:23:00,89.0,-99.9,-100.00,South,189,1.0,6.0,-999,0.00,,,0.00,,2013-08-27 17:23:00,
2013-08-27 12:43:00,90.0,-99.9,-100.00,SW,214,3.0,6.0,-999,0.00,,,0.00,,2013-08-27 17:43:00,
2013-08-27 12:52:00,90.0,-99.9,-100.00,SW,214,3.0,6.0,-999,0.00,,,0.00,,2013-08-27 17:52:00,
2013-08-27 13:12:00,90.0,-99.9,-100.00,SSW,193,2.0,5.0,-999,0.00,,,0.00,,2013-08-27 18:12:00,
2013-08-27 13:22:00,90.0,-99.9,-100.00,SSW,193,2.0,5.0,-999,0.00,,,0.00,,2013-08-27 18:22:00,
2013-08-27 13:42:00,91.0,-99.9,-100.00,SW,225,2.0,9.0,-999,0.00,,,0.00,,2013-08-27 18:42:00,
2013-08-27 13:53:00,91.0,-99.9,-100.00,SW,225,2.0,9.0,-999,0.00,,,0.00,,2013-08-27 18:53:00,
2013-08-27 14:12:00,94.0,-99.9,-100.00,SW,229,1.0,5.0,-999,0.00,,,0.00,,2013-08-27 19:12:00,
2013-08-27 14:22:00,94.0,-99.9,-100.00,SW,229,1.0,5.0,-999,0.00,,,0.00,,2013-08-27 19:22:00,
2013-08-27 14:42:00,93.0,-99.9,-100.00,SSW,199,1.0,5.0,-999,0.00,,,0.00,,2013-08-27 19:42:00,
2013-08-27 14:52:00,93.0,-99.9,-100.00,SSW,199,1.0,5.0,-999,0.00,,,0.00,,2013-08-27 19:52:00,
2013-08-27 15:12:00,94.0,-99.9,-100.00,SW,229,3.0,8.0,-999,0.00,,,0.00,,2013-08-27 20:12:00,